Regional Weather Roundup
Issued by NWS Cleveland, OH

Home | Current Version | Previous Version | Graphics & Text | Print | Product List | Glossary On
Versions: 1 2 3 4 5 6 7 8 9 10 11 12 13 14 15 16 17 18 19 20 21 22 23 24 25 26 27 28 29 30 31 32 33 34 35 36 37 38 39 40 41 42 43 44 45 46 47 48 49 50
000
ASUS41 KCLE 041800
RWRCLE
OHIO REGIONAL WEATHER ROUNDUP
NATIONAL WEATHER SERVICE WILMINGTON, OH
200 PM EDT FRI SEP 04 2015

NOTE: "FAIR" INDICATES FEW OR NO CLOUDS BELOW 12,000 FEET WITH NO
SIGNIFICANT WEATHER AND/OR OBSTRUCTIONS TO VISIBILITY.

OHZ001>008-015>018-024>027-034-035-043-044-041900-
   NORTHWEST OHIO

CITY           SKY/WX    TMP DP  RH WIND       PRES   REMARKS
DEFIANCE       LGT RAIN  83  71  67 W3        30.02S
FINDLAY        PTSUNNY   81  67  62 SW6       30.02S
TOLEDO EXPRESS PTSUNNY   85  72  65 SW3       30.00F HX  91
TOLEDO EXEC    PTSUNNY   87  72  60 S10       30.01F HX  93
LIMA           MOSUNNY   88  70  55 S9G17     30.02F HX  93
$$

OHZ009>014-019>023-028>033-038-089-041900-
   NORTHEAST OHIO

CITY           SKY/WX    TMP DP  RH WIND       PRES   REMARKS
CLE-HOPKINS    MOSUNNY   83  67  58 S13G20    30.07S
CLE-LAKEFRONT  MOSUNNY   83  72  69 N8        30.03F
CUY CO. ARPT   PTSUNNY   82  70  65 SE12      30.06F
LORAIN-ELYRIA  MOSUNNY   80  66  62 S16       30.05S
ASHTABULA      PTSUNNY   78  67  68 S3        30.08F
AKRON-CANTON   PTSUNNY   78  65  63 S6        30.09R
WOOSTER        NOT AVBL
MANSFIELD      PTSUNNY   79  67  66 S14       30.07F
YOUNGSTOWN     PTSUNNY   77  65  66 SW6       30.09F
$$

OHZ042-051>053-060>062-070>072-077>081-041900-
  SOUTHWEST OHIO

CITY           SKY/WX    TMP DP  RH WIND       PRES   REMARKS
CINC-COVINGTON MOSUNNY   91  66  43 S7        30.06F HX  93
CINC-LUNKEN    MOSUNNY   90  68  48 SW7       30.04F HX  94
HAMILTON       MOSUNNY   93  67  42 VRB5      30.04F HX  96
DAYTON         NOT AVBL
WRIGHT-PAT AFB TSTM      81  72  74 W15       30.04F FOG
DAYTON GENERAL PTSUNNY   89  67  47 VRB7      30.05F HX  92
WILMINGTON     SUNNY     87  68  52 SW8       30.05F HX  90
$$

OHZ036-037-039>041-045>050-054>059-063>069-073>076-082>088-041900-
  CENTRAL AND SOUTHEAST OHIO

CITY           SKY/WX    TMP DP  RH WIND       PRES   REMARKS
COLUMBUS       PTSUNNY   84  70  62 S9        30.06F
OSU AIRPORT    MOSUNNY   83  70  64 S7        30.06F
BOLTON FIELD   SUNNY     84  72  65 SE8       30.06F
RICKENBACK AFB NOT AVBL
NEWARK         PTSUNNY   82  67  60 S7        30.07F
MARION         FAIR      82  70  66 S13       30.05F
LANCASTER      PTSUNNY   84  69  60 VRB5      30.08F
ZANESVILLE     CLOUDY    77  70  79 VRB3      30.09F
NEW PHILLY     CLOUDY    71  68  90 E5        30.09S
$$


USA.gov is the U.S. government's official web portal to all federal, state and local government web resources and services.